This is the latest recevied weather packets stored in our database for station/object SP5MRF. If no packets are shown the sender has not sent any weather packets the latest 10 day(s).
| Time | Temp. | Humidity | Pressure | Rain* | Wind** | Luminosity | Snow |
|---|---|---|---|---|---|---|---|
| 1788291411 | 15° C | 83% | 1013.8 hPa | 0 mm | - | - | - |
| 1788290931 | 15° C | 82% | 1013.7 hPa | 0.51 mm | - | - | - |
| 1788289971 | 15° C | 80% | 1013.6 hPa | 0.51 mm | - | - | - |
| 1788289506 | 15.56° C | 80% | 1013.8 hPa | 0.51 mm | - | - | - |
| 1788289011 | 15.56° C | 80% | 1013.7 hPa | 0.51 mm | - | - | - |
| 1788288532 | 16.11° C | 79% | 1013.7 hPa | 0.51 mm | - | - | - |
| 1788287571 | 16.67° C | 78% | 1013.6 hPa | 0 mm | - | - | - |
| 1788287091 | 17.22° C | 76% | 1013.5 hPa | 0 mm | - | - | - |
| 1788286611 | 17.22° C | 75% | 1013.4 hPa | 0 mm | - | - | - |
| 1788286131 | 17.22° C | 75% | 1013.3 hPa | 0 mm | - | - | - |
| 1788285651 | 17.22° C | 75% | 1013.1 hPa | 0 mm | - | - | - |
| 1788285171 | 17.22° C | 74% | 1013.1 hPa | 0 mm | - | - | - |
| 1788284692 | 17.22° C | 73% | 1012.9 hPa | 0 mm | - | - | - |
| 1788284213 | 17.22° C | 73% | 1012.8 hPa | 0 mm | - | - | - |
| 1788283731 | 17.78° C | 73% | 1012.7 hPa | 0 mm | - | - | - |
| 1788283251 | 17.78° C | 72% | 1012.5 hPa | 0 mm | - | - | - |
| 1788282771 | 17.78° C | 72% | 1012.3 hPa | 0 mm | - | - | - |
| 1788282292 | 18.33° C | 72% | 1012.5 hPa | 0 mm | - | - | - |
| 1788281811 | 18.33° C | 72% | 1012.4 hPa | 0 mm | - | - | - |
| 1788281331 | 18.89° C | 71% | 1012.1 hPa | 0 mm | - | - | - |
| 1788280851 | 18.89° C | 71% | 1012.2 hPa | 0 mm | - | - | - |
| 1788279411 | 18.89° C | 69% | 1012.1 hPa | 0 mm | - | - | - |
| 1788278931 | 19.44° C | 67% | 1012 hPa | 0 mm | - | - | - |
| 1788278451 | 19.44° C | 67% | 1012 hPa | 0 mm | - | - | - |
| 1788277971 | 19.44° C | 66% | 1011.9 hPa | 0 mm | - | - | - |
* Rain latest hour (hover to see other rain measurements)
** Current wind speed in m/s (hover to see current wind gust speed)